Actual water levels and discharges of Elbe river

Guaranteed water level and forecast    Ústí nad Labem-Střekov

Guaranteed water level
255 cm
on 08.02.2023 more information
Forecast
245 cm
on 09.02.2023 07:00
Tendency
Slowly decreasing
on 09.02.2023 tendency methodology
Assumption
230 cm
on 10.02.2023 07:00
(Source data ČHMÚ a Povodí Labe)

Děčín

Date and time (UTC) H (cm) Q (m³/s)
8. 2. 2023 16:50 240 340
8. 2. 2023 16:00 242 344
8. 2. 2023 15:00 243 346
8. 2. 2023 14:00 243 346
8. 2. 2023 13:00 243 346
8. 2. 2023 12:00 242 344
8. 2. 2023 11:00 243 346
8. 2. 2023 10:00 243 346
8. 2. 2023 09:00 243 346
8. 2. 2023 08:00 243 346
8. 2. 2023 07:00 244 348
8. 2. 2023 06:00 246 353
8. 2. 2023 05:00 248 357
8. 2. 2023 04:00 251 364

H - water level, Q - discharge

Ústí nad Labem

Date and time (UTC) H (cm) Q (m³/s)
8. 2. 2023 16:50 256 313
8. 2. 2023 16:00 256 313
8. 2. 2023 15:00 256 313
8. 2. 2023 14:00 257 315
8. 2. 2023 13:00 260 322
8. 2. 2023 12:00 262 327
8. 2. 2023 11:00 265 334
8. 2. 2023 10:00 262 327
8. 2. 2023 09:00 262 327
8. 2. 2023 08:00 261 325
8. 2. 2023 07:00 262 327
8. 2. 2023 06:00 263 329
8. 2. 2023 05:00 262 327
8. 2. 2023 04:00 262 327

H - water level, Q - discharge
more information

Mělník

Date and time (UTC) H (cm) Q (m³/s)
8. 2. 2023 16:50 287 -
8. 2. 2023 16:00 284 -
8. 2. 2023 15:00 281 -
8. 2. 2023 14:00 282 -
8. 2. 2023 13:00 284 -
8. 2. 2023 12:00 285 -
8. 2. 2023 11:00 286 -
8. 2. 2023 10:00 289 -
8. 2. 2023 09:00 284 -
8. 2. 2023 08:00 287 -
8. 2. 2023 07:00 287 280
8. 2. 2023 06:00 287 -
8. 2. 2023 05:00 287 -
8. 2. 2023 04:00 288 -

H - water level, Q - discharge
more information

Kostelec nad Labem

Date and time (UTC) H (cm) Q (m³/s)
8. 2. 2023 16:50 413 -
8. 2. 2023 16:00 413 81
8. 2. 2023 15:00 413 82
8. 2. 2023 14:00 413 84
8. 2. 2023 13:00 414 83
8. 2. 2023 12:00 413 83
8. 2. 2023 11:00 414 83
8. 2. 2023 10:00 414 84
8. 2. 2023 09:00 415 83
8. 2. 2023 08:00 416 92
8. 2. 2023 07:00 415 93
8. 2. 2023 06:00 415 92
8. 2. 2023 05:00 415 92
8. 2. 2023 04:00 414 92

H - water level, Q - discharge
more information

Přelouč

Date and time (UTC) H (cm) Q (m³/s)
8. 2. 2023 16:50 97 58.8
8. 2. 2023 16:00 95 57
8. 2. 2023 15:00 93 55
8. 2. 2023 14:00 93 55
8. 2. 2023 13:00 97 59
8. 2. 2023 12:00 101 63
8. 2. 2023 11:00 100 62
8. 2. 2023 10:00 99 61
8. 2. 2023 09:00 99 61
8. 2. 2023 08:00 99 61
8. 2. 2023 07:00 100 62
8. 2. 2023 06:00 100 62
8. 2. 2023 05:00 100 62
8. 2. 2023 04:00 100 62

H - water level, Q - discharge
more information

Němčice

Date and time (UTC) H (cm) Q (m³/s)
8. 2. 2023 16:50 136 42.4
8. 2. 2023 16:00 136 42
8. 2. 2023 15:00 135 42
8. 2. 2023 14:00 133 41
8. 2. 2023 13:00 132 40
8. 2. 2023 12:00 132 40
8. 2. 2023 11:00 134 41
8. 2. 2023 10:00 136 42
8. 2. 2023 09:00 137 43
8. 2. 2023 08:00 137 43
8. 2. 2023 07:00 138 43
8. 2. 2023 06:00 138 43
8. 2. 2023 05:00 139 44
8. 2. 2023 04:00 139 44

H - water level, Q - discharge
Source data
Labe Basin Vltava Basin Povodí Moravy ČHMÚ